Satellite: NOAA-11 Catalog number: 19531 Epoch time: 13192.13868623 Element set: 429 Inclination: 098.7101 deg RA of node: 274.6071 deg Eccentricity: 0.0011407 Arg of perigee: 187.5885 deg Mean anomaly: 230.6086 deg Mean motion: 14.15020954 rev/day Decay rate: 2.9e-07 rev/day^2 Epoch rev: 27951 Checksum: 299
Satellite: NOAA-12 Catalog number: 21263 Epoch time: 13192.11312726 Element set: 893 Inclination: 098.6963 deg RA of node: 217.3087 deg Eccentricity: 0.0014744 Arg of perigee: 147.2096 deg Mean anomaly: 262.5716 deg Mean motion: 14.25575576 rev/day Decay rate: 1.1e-07 rev/day^2 Epoch rev: 15196 Checksum: 305
Satellite: MET-3/5 Catalog number: 21655 Epoch time: 13192.78746393 Element set: 734 Inclination: 082.5540 deg RA of node: 236.9129 deg Eccentricity: 0.0014421 Arg of perigee: 071.7485 deg Mean anomaly: 288.5205 deg Mean motion: 13.17046859 rev/day Decay rate: -2.0e-07 rev/day^2 Epoch rev: 5317 Checksum: 308
Satellite: MET-2/21 Catalog number: 22782 Epoch time: 13192.77994072 Element set: 786 Inclination: 082.5485 deg RA of node: 083.4130 deg Eccentricity: 0.0023554 Arg of perigee: 138.4623 deg Mean anomaly: 283.3507 deg Mean motion: 13.83710016 rev/day Decay rate: 4.0e-08 rev/day^2 Epoch rev: 304 Checksum: 286
Satellite: OKEAN-4 Catalog number: 23317 Epoch time: 13192.87814353 Element set: 266 Inclination: 082.5380 deg RA of node: 026.6820 deg Eccentricity: 0.0022371 Arg of perigee: 142.2599 deg Mean anomaly: 351.9627 deg Mean motion: 14.84530900 rev/day Decay rate: 5.26e-06 rev/day^2 Epoch rev: 1260 Checksum: 285
Satellite: NOAA-14 Catalog number: 23455 Epoch time: 13192.13189333 Element set: 377 Inclination: 098.8022 deg RA of node: 276.2084 deg Eccentricity: 0.0008392 Arg of perigee: 290.4744 deg Mean anomaly: 128.0833 deg Mean motion: 14.13912973 rev/day Decay rate: -9.0e-08 rev/day^2 Epoch rev: 95575 Checksum: 316
Satellite: NOAA-15 Catalog number: 25338 Epoch time: 13192.70724551 Element set: 797 Inclination: 098.7248 deg RA of node: 182.7761 deg Eccentricity: 0.0011612 Arg of perigee: 058.8678 deg Mean anomaly: 301.4116 deg Mean motion: 14.25241125 rev/day Decay rate: 2.23e-06 rev/day^2 Epoch rev: 78834 Checksum: 310
Satellite: RESURS Catalog number: 25394 Epoch time: 13192.87581684 Element set: 418 Inclination: 098.3634 deg RA of node: 167.5333 deg Eccentricity: 0.0002136 Arg of perigee: 142.1347 deg Mean anomaly: 274.4604 deg Mean motion: 14.24333062 rev/day Decay rate: -2.8e-07 rev/day^2 Epoch rev: 77987 Checksum: 308
Satellite: FENGYUN1 Catalog number: 25730 Epoch time: 13191.46140346 Element set: 913 Inclination: 098.8780 deg RA of node: 150.6874 deg Eccentricity: 0.0025194 Arg of perigee: 346.9030 deg Mean anomaly: 160.2281 deg Mean motion: 14.10568584 rev/day Decay rate: 4.02e-06 rev/day^2 Epoch rev: 72932 Checksum: 291
Satellite: OKEAN-0 Catalog number: 25860 Epoch time: 13192.13323635 Element set: 991 Inclination: 097.9918 deg RA of node: 154.2641 deg Eccentricity: 0.0002115 Arg of perigee: 094.7465 deg Mean anomaly: 325.8029 deg Mean motion: 14.74638222 rev/day Decay rate: 2.42e-06 rev/day^2 Epoch rev: 75188 Checksum: 307
Satellite: NOAA-16 Catalog number: 26536 Epoch time: 13192.13059539 Element set: 278 Inclination: 099.0410 deg RA of node: 245.1321 deg Eccentricity: 0.0011420 Arg of perigee: 072.1163 deg Mean anomaly: 341.3235 deg Mean motion: 14.12893815 rev/day Decay rate: 1.51e-06 rev/day^2 Epoch rev: 65995 Checksum: 280
Satellite: NOAA-17 Catalog number: 27453 Epoch time: 13192.08862610 Element set: 193 Inclination: 098.3125 deg RA of node: 204.9024 deg Eccentricity: 0.0013043 Arg of perigee: 096.8074 deg Mean anomaly: 323.9664 deg Mean motion: 14.24602540 rev/day Decay rate: 4.7e-07 rev/day^2 Epoch rev: 57412 Checksum: 285
Satellite: NOAA-18 Catalog number: 28654 Epoch time: 13192.11498481 Element set: 680 Inclination: 099.1012 deg RA of node: 160.6774 deg Eccentricity: 0.0015229 Arg of perigee: 138.7710 deg Mean anomaly: 351.9229 deg Mean motion: 14.11836239 rev/day Decay rate: 2.09e-06 rev/day^2 Epoch rev: 41943 Checksum: 310
Satellite: NOAA-19 Catalog number: 33591 Epoch time: 13192.13647531 Element set: 862 Inclination: 098.9037 deg RA of node: 134.0135 deg Eccentricity: 0.0014106 Arg of perigee: 007.4139 deg Mean anomaly: 108.1005 deg Mean motion: 14.11524377 rev/day Decay rate: 5.9e-07 rev/day^2 Epoch rev: 22787 Checksum: 283
/EX SB KEPS @ AMSAT $ORB13192.M Orbital Elements 13192.MISC
HR AMSAT ORBITAL ELEMENTS FOR MANNED AND MISCELLANEOUS SATELLITES FROM WA5QGD FORT WORTH,TX July 11, 2013 BID: ORB13192.M TO ALL RADIO AMATEURS BT
Satellite: HUBBLE Catalog number: 20580 Epoch time: 13192.23112869 Element set: 279 Inclination: 028.4703 deg RA of node: 115.1930 deg Eccentricity: 0.0002997 Arg of perigee: 248.6784 deg Mean anomaly: 238.9591 deg Mean motion: 15.03752097 rev/day Decay rate: 1.027e-05 rev/day^2 Epoch rev: 7332 Checksum: 300
Satellite: ISS Catalog number: 25544 Epoch time: 13192.88402282 Element set: 166 Inclination: 051.6500 deg RA of node: 345.9257 deg Eccentricity: 0.0005542 Arg of perigee: 170.9323 deg Mean anomaly: 325.3318 deg Mean motion: 15.49775381 rev/day Decay rate: 8.716e-05 rev/day^2 Epoch rev: 83853 Checksum: 308
Satellite: CO-58 Catalog number: 28895 Epoch time: 13192.11832615 Element set: 519 Inclination: 097.8682 deg RA of node: 046.2702 deg Eccentricity: 0.0017539 Arg of perigee: 011.7241 deg Mean anomaly: 348.4366 deg Mean motion: 14.61159901 rev/day Decay rate: 2.75e-06 rev/day^2 Epoch rev: 41043 Checksum: 312
Satellite: FALCON Catalog number: 30776 Epoch time: 13192.07562525 Element set: 649 Inclination: 035.4312 deg RA of node: 055.5750 deg Eccentricity: 0.0001424 Arg of perigee: 210.8967 deg Mean anomaly: 278.2379 deg Mean motion: 15.10894473 rev/day Decay rate: 3.701e-05 rev/day^2 Epoch rev: 34903 Checksum: 297
Satellite: MAST Catalog number: 31126 Epoch time: 13192.77519343 Element set: 799 Inclination: 097.8826 deg RA of node: 187.2943 deg Eccentricity: 0.0092259 Arg of perigee: 336.8493 deg Mean anomaly: 099.7620 deg Mean motion: 14.54615438 rev/day Decay rate: 2.63e-06 rev/day^2 Epoch rev: 33089 Checksum: 347
Satellite: CAPE1 Catalog number: 31130 Epoch time: 13191.93350117 Element set: 802 Inclination: 097.8996 deg RA of node: 182.8625 deg Eccentricity: 0.0100036 Arg of perigee: 355.3582 deg Mean anomaly: 004.6678 deg Mean motion: 14.53541723 rev/day Decay rate: 4.23e-06 rev/day^2 Epoch rev: 33022 Checksum: 278
Satellite: COMPASS Catalog number: 32787 Epoch time: 13192.72187985 Element set: 672 Inclination: 097.7509 deg RA of node: 250.6490 deg Eccentricity: 0.0014219 Arg of perigee: 217.3713 deg Mean anomaly: 142.6515 deg Mean motion: 14.85624695 rev/day Decay rate: 1.080e-05 rev/day^2 Epoch rev: 28160 Checksum: 317
Satellite: AAUSAT2 Catalog number: 32788 Epoch time: 13192.72280806 Element set: 657 Inclination: 097.7512 deg RA of node: 251.2989 deg Eccentricity: 0.0013537 Arg of perigee: 216.7200 deg Mean anomaly: 143.3089 deg Mean motion: 14.86097096 rev/day Decay rate: 1.008e-05 rev/day^2 Epoch rev: 28164 Checksum: 317
Satellite: DO-64 Catalog number: 32789 Epoch time: 13192.17298765 Element set: 685 Inclination: 097.7665 deg RA of node: 254.6797 deg Eccentricity: 0.0013209 Arg of perigee: 210.2856 deg Mean anomaly: 206.3837 deg Mean motion: 14.88789162 rev/day Decay rate: 3.138e-05 rev/day^2 Epoch rev: 28169 Checksum: 371
Satellite: CO-66 Catalog number: 32791 Epoch time: 13192.17307760 Element set: 650 Inclination: 097.7509 deg RA of node: 249.4464 deg Eccentricity: 0.0014490 Arg of perigee: 220.7886 deg Mean anomaly: 202.2943 deg Mean motion: 14.84739348 rev/day Decay rate: 7.50e-06 rev/day^2 Epoch rev: 28143 Checksum: 326
Satellite: RS-30 Catalog number: 32953 Epoch time: 13192.68981598 Element set: 20 Inclination: 082.5001 deg RA of node: 052.9546 deg Eccentricity: 0.0018153 Arg of perigee: 176.1599 deg Mean anomaly: 183.9623 deg Mean motion: 12.43034876 rev/day Decay rate: 1.0e-07 rev/day^2 Epoch rev: 23295 Checksum: 303
Satellite: METEOR-M Catalog number: 35865 Epoch time: 13192.71422920 Element set: 612 Inclination: 098.6002 deg RA of node: 244.5342 deg Eccentricity: 0.0002968 Arg of perigee: 021.0796 deg Mean anomaly: 339.0495 deg Mean motion: 14.21889571 rev/day Decay rate: -3.0e-08 rev/day^2 Epoch rev: 19795 Checksum: 304
Satellite: RS-38 Catalog number: 35869 Epoch time: 13192.67294154 Element set: 569 Inclination: 098.5941 deg RA of node: 244.4016 deg Eccentricity: 0.0005149 Arg of perigee: 012.4117 deg Mean anomaly: 347.7193 deg Mean motion: 14.22136032 rev/day Decay rate: 2.2e-07 rev/day^2 Epoch rev: 19797 Checksum: 314
Satellite: JUGNU Catalog number: 37839 Epoch time: 13190.35601542 Element set: 419 Inclination: 019.9605 deg RA of node: 172.4570 deg Eccentricity: 0.0018942 Arg of perigee: 166.8648 deg Mean anomaly: 311.1945 deg Mean motion: 14.12165666 rev/day Decay rate: 3.53e-06 rev/day^2 Epoch rev: 9003 Checksum: 297
Satellite: SRMSAT Catalog number: 37841 Epoch time: 13190.70042824 Element set: 421 Inclination: 019.9709 deg RA of node: 182.8714 deg Eccentricity: 0.0011944 Arg of perigee: 122.7901 deg Mean anomaly: 217.4032 deg Mean motion: 14.10234032 rev/day Decay rate: 3.30e-06 rev/day^2 Epoch rev: 8995 Checksum: 263
Satellite: RAX-2 Catalog number: 37853 Epoch time: 13190.61960782 Element set: 539 Inclination: 101.7096 deg RA of node: 054.6542 deg Eccentricity: 0.0234315 Arg of perigee: 323.2388 deg Mean anomaly: 068.5202 deg Mean motion: 14.83851461 rev/day Decay rate: 3.454e-05 rev/day^2 Epoch rev: 9177 Checksum: 308
